Location: ???????
(55.3754°N, 39.3545°E)
Time: 18:27:53
(UTC+00:00)

Cosmos 1420 Rocket - Pass Details

Date: 14 April 2026
Orbit: 749 x 777 km, 74.0° (Epoch: 19 May)

Event Time Altitude Azimuth Distance (km) Brightness Sun altitude
Exits shadow 21:20:25 54° 112° (ESE) 931 4.2 -25.0°
Maximum altitude 21:20:27 54° 110° (ESE) 931 4.2 -25.0°
Drops below altitude 10° 21:25:36 10° 34° (NE) 2,328 7.2 -25.0°
Sets 21:28:02 0° 30° (NNE) 3,263 8.2 -25.0°
